Weather History for Branson, MO

Change the Weather History Date:

Monday, February 11, 2013

  Actual Average (KHRO) Record (KHRO)
Temperature  
Mean Temperature 42 °F 40 °F  
Max Temperature 50 °F 50 °F 76 °F (1928)
Min Temperature 33 °F 29 °F -6 °F (1981)
Degree Days  
Heating Degree Days 24 25  
Month to date heating degree days 290  
Since 1 July heating degree days 2776  
Cooling Degree Days 0 0  
Month to date cooling degree days 0  
Year to date cooling degree days 0  
Moisture  
Dew Point 23 °F    
Average Humidity 53    
Maximum Humidity 65    
Minimum Humidity 30    
Precipitation  
Precipitation 0.00 in 0.09 in 0.72 in (1998)
Month to date precipitation 0.98  
Year to date precipitation 3.54  
Snow  
Snow 0.00 in 0.10 in 1.20 in (1985)
Month to date snowfall 1.5  
Since 1 July snowfall 7.5  
Snow Depth -    
Sea Level Pressure  
Sea Level Pressure 30.11 in    
Wind  
Wind Speed 6 mph (WNW)    
Max Wind Speed 13 mph    
Max Gust Speed 18 mph    
Visibility 10 miles    
Events      
T = Trace of Precipitation, MM = Missing Value Source: NWS Daily Summary

Daily Weather History Graph

Daily Weather History Graph

Search for Another Location

Airport:

Trip Planner

Search our weather history database for the weather conditions in past years. The results will help you decide how hot, cold, wet, or windy it might be!

Date:

Astronomy

Feb. 11, 2013 Rise Set
Actual Time 7:04 AM CST 5:49 PM CST
Civil Twilight 6:38 AM CST 6:16 PM CST
Nautical Twilight 6:07 AM CST 6:46 PM CST
Astronomical Twilight 5:37 AM CST 7:16 PM CST
Moon 7:33 AM CST (2/11) 7:42 PM CST (2/11)
Length of Visible Light 11h 38m
Length of Day
10h 44m
Waxing Crescent, 3% of the Moon is Illuminated
Feb 11
Waxing Crescent
Feb 17
First Quarter
Feb 25
Full
Mar 4
Last Quarter
Mar 11
New

Hourly Weather History & Observations

Time (CST) Temp. Windchill Dew Point Humidity Pressure Visibility Wind Dir Wind Speed Gust Speed Precip Events Conditions
12:15 AM 41.0 °F 35.2 °F 23.0 °F 49% 30.02 in 10.0 mi WNW 9.2 mph 16.1 mph N/A   Clear
12:35 AM 39.2 °F 33.0 °F 23.0 °F 52% 30.03 in 10.0 mi WNW 9.2 mph 17.3 mph N/A   Clear
12:55 AM 39.2 °F 33.0 °F 23.0 °F 52% 30.03 in 10.0 mi WNW 9.2 mph 18.4 mph N/A   Clear
1:15 AM 39.2 °F 32.5 °F 23.0 °F 52% 30.03 in 10.0 mi WNW 10.4 mph 16.1 mph N/A   Clear
1:35 AM 39.2 °F 32.5 °F 24.8 °F 56% 30.03 in 10.0 mi WNW 10.4 mph 17.3 mph N/A   Clear
1:55 AM 39.2 °F 33.6 °F 24.8 °F 56% 30.04 in 10.0 mi WNW 8.1 mph - N/A   Clear
2:15 AM 39.2 °F 33.6 °F 23.0 °F 52% 30.04 in 10.0 mi WNW 8.1 mph - N/A   Clear
2:35 AM 39.2 °F 34.2 °F 23.0 °F 52% 30.04 in 10.0 mi West 6.9 mph - N/A   Clear
2:55 AM 37.4 °F 33.8 °F 23.0 °F 56% 30.04 in 10.0 mi West 4.6 mph - N/A   Clear
3:15 AM 37.4 °F - 23.0 °F 56% 30.04 in 10.0 mi Calm Calm - N/A   Clear
3:35 AM 35.6 °F 31.7 °F 23.0 °F 60% 30.05 in 10.0 mi WSW 4.6 mph - N/A   Clear
3:55 AM 35.6 °F 31.7 °F 23.0 °F 60% 30.06 in 10.0 mi WSW 4.6 mph - N/A   Clear
4:15 AM 35.6 °F 32.8 °F 23.0 °F 60% 30.06 in 10.0 mi West 3.5 mph - N/A   Clear
4:35 AM 35.6 °F 31.7 °F 23.0 °F 60% 30.07 in 10.0 mi West 4.6 mph - N/A   Clear
4:55 AM 35.6 °F 32.8 °F 23.0 °F 60% 30.09 in 10.0 mi WSW 3.5 mph - N/A   Clear
5:15 AM 35.6 °F 30.7 °F 23.0 °F 60% 30.09 in 10.0 mi West 5.8 mph - N/A   Clear
6:52 AM 33.8 °F 25.3 °F 23.0 °F 65% 30.11 in 10.0 mi NW 11.5 mph - N/A   Partly Cloudy
7:53 AM 35.6 °F 27.1 °F 24.8 °F 65% 30.15 in 10.0 mi NW 12.7 mph - N/A   Partly Cloudy
8:47 AM 37.4 °F 30.8 °F 24.8 °F 60% 30.15 in 10.0 mi NW 9.2 mph - N/A   Partly Cloudy
9:54 AM 39.2 °F 32.0 °F 24.8 °F 56% 30.16 in 10.0 mi NW 11.5 mph - N/A   Partly Cloudy
10:46 AM 41.0 °F 38.0 °F 24.8 °F 53% 30.19 in 10.0 mi NNW 4.6 mph - N/A   Partly Cloudy
11:48 AM 44.6 °F 41.4 °F 23.0 °F 43% 30.18 in 10.0 mi West 5.8 mph - N/A   Partly Cloudy
12:47 PM 46.4 °F 42.4 °F 23.0 °F 40% 30.15 in 10.0 mi West 8.1 mph - N/A   Partly Cloudy
1:55 PM 48.2 °F - 19.4 °F 32% 30.14 in 10.0 mi West 8.1 mph - N/A   Partly Cloudy
2:48 PM 50.0 °F - 19.4 °F 30% 30.13 in 10.0 mi West 5.8 mph - N/A   Partly Cloudy
3:45 PM 50.0 °F - 19.4 °F 30% 30.11 in 10.0 mi West 8.1 mph - N/A   Partly Cloudy
4:59 PM 50.0 °F - 19.4 °F 30% 30.11 in 10.0 mi West 4.6 mph - N/A   Partly Cloudy
5:45 PM 48.2 °F - 19.4 °F 32% 30.11 in 10.0 mi Calm Calm - N/A   Partly Cloudy
6:50 PM 44.6 °F - 19.4 °F 37% 30.13 in 10.0 mi Calm Calm - N/A   Partly Cloudy
7:45 PM 39.2 °F - 26.6 °F 61% 30.14 in 10.0 mi Calm Calm - N/A   Partly Cloudy
7:55 PM 41.0 °F - 21.2 °F 45% 30.14 in 10.0 mi Calm Calm - N/A   Clear
8:15 PM 39.2 °F - 23.0 °F 52% 30.14 in 10.0 mi Calm Calm - N/A   Clear
8:35 PM 37.4 °F - 23.0 °F 56% 30.14 in 10.0 mi Calm Calm - N/A   Clear
8:50 PM 37.4 °F - 23.0 °F 56% 30.14 in 10.0 mi Calm Calm - N/A   Clear
8:55 PM 37.4 °F - 23.0 °F 56% 30.14 in 10.0 mi Calm Calm - N/A   Clear
9:15 PM 37.4 °F - 24.8 °F 60% 30.14 in 10.0 mi Calm Calm - N/A   Clear
9:35 PM 37.4 °F - 23.0 °F 56% 30.15 in 10.0 mi Calm Calm - N/A   Clear
9:55 PM 37.4 °F - 23.0 °F 56% 30.15 in 10.0 mi Calm Calm - N/A   Clear
10:15 PM 37.4 °F - 24.8 °F 60% 30.15 in 10.0 mi Calm Calm - N/A   Clear
10:35 PM 37.4 °F - 23.0 °F 56% 30.15 in 10.0 mi Calm Calm - N/A   Clear
10:55 PM 37.4 °F - 24.8 °F 60% 30.15 in 10.0 mi Calm Calm - N/A   Clear
11:15 PM 35.6 °F - 23.0 °F 60% 30.15 in 10.0 mi Calm Calm - N/A   Clear
11:35 PM 35.6 °F - 24.8 °F 65% 30.15 in 10.0 mi Calm Calm - N/A   Clear
11:55 PM 37.4 °F - 23.0 °F 56% 30.14 in 10.0 mi Calm Calm - N/A   Partly Cloudy